Stations météo

réclame
Mon MeteoGroup
Berus, Allemagne (10704): Température de l'air & dewpoint: 15.02.2019 15:00:00 - 21.02.2019 15:00:00 (CET)Berus, Allemagne (10704): Température de l'air 5cm & Température de l'air -5cm: 15.02.2019 15:00:00 - 21.02.2019 15:00:00 (CET)Berus, Allemagne (10704): Température de l'air -20cm & Température de l'air -100cm: 15.02.2019 15:00:00 - 21.02.2019 15:00:00 (CET)Berus, Allemagne (10704): Vitesse du vent & gusts: 15.02.2019 15:00:00 - 21.02.2019 15:00:00 (CET)Berus, Allemagne (10704): Direction du vent: 15.02.2019 15:00:00 - 21.02.2019 15:00:00 (CET)Berus, Allemagne (10704): reduced air pressure: 15.02.2019 15:00:00 - 21.02.2019 15:00:00 (CET)Berus, Allemagne (10704): visibility: 15.02.2019 15:00:00 - 21.02.2019 15:00:00 (CET)Berus, Allemagne (10704): Ensoleillement: 15.02.2019 15:00:00 - 21.02.2019 15:00:00 (CET)Berus, Allemagne (10704): Quantités de précipitations: 15.02.2019 15:00:00 - 21.02.2019 15:00:00 (CET)
Date & Time tt [°C] td [°C] tt 5cm [°C] tt -5cm [°C] tt -20cm [°C] tt -100cm [°C] ff [km/h] ff [knt] fx [km/h] fx [knt] dd ppp [hPa] vv [km] sd [min] rr [mm]
21.02.2019 15:00:00 12,5 4,8 13,8 12,4 5,1 5,0 14 8 23 12 W 1028,2 27 36 0,0
21.02.2019 14:00:00 13,6 5,1 17,1 12,8 4,5 5,0 13 7 26 14 W 1028,0 29 60 0,0
21.02.2019 13:00:00 11,8 5,1 14,2 11,0 4,0 5,0 13 7 18 10 SW 1028,5 21 57 0,0
21.02.2019 12:00:00 10,0 4,7 13,8 9,5 3,5 5,0 5 3 9 5 SW 1029,3 20 48 0,0
21.02.2019 11:00:00 7,9 4,6 7,9 7,0 3,2 5,0 6 3 14 7 S 1029,4 14 42 0,0
21.02.2019 10:00:00 7,3 4,4 8,8 3,8 3,2 5,0 5 3 9 5 S 1029,1 10 60 0,0
21.02.2019 09:00:00 5,8 4,1 4,3 1,0 3,3 5,0 6 3 9 5 S 1029,0 5 39 0,0
21.02.2019 08:00:00 3,9 3,1 -0,1 1,0 3,4 5,0 8 4 10 5 SW 1028,8 3,0 0 0,0
21.02.2019 07:00:00 3,6 2,7 -0,3 0,9 3,6 5,0 8 4 9 5 S 1028,5 4,5 0 0,0
21.02.2019 06:00:00 4,4 3,0 -1,3 0,8 3,7 5,0 3 2 6 3 SSE 1028,3 8 0 0,0
21.02.2019 05:00:00 4,3 2,8 1,3 1,1 3,9 5,0 6 4 7 4 NNE 1028,4 4,3 0 0,0
21.02.2019 04:00:00 4,9 3,4 -1,2 1,4 4,1 5,0 3 2 5 3 SSW 1028,2 10 0 0,0
21.02.2019 03:00:00 6,0 3,2 -0,6 1,9 4,3 5,0 3 2 5 3 NW 1027,8 31 0 0,0
21.02.2019 02:00:00 5,4 2,9 1,1 2,5 4,4 5,0 3 1 6 4 E 1027,7 21 0 0,0
21.02.2019 01:00:00 6,3 3,3 1,9 2,9 4,6 5,0 5 3 8 4 SSW 1027,6 23 0 0,0
21.02.2019 00:00:00 6,4 3,2 0,9 2,5 4,7 5,0 6 3 8 5 SSW 1027,1 31 0 0,0
20.02.2019 23:00:00 6,6 3,3 0,9 3,2 4,9 5,0 6 4 9 5 SSW 1026,9 29 0 0,0
20.02.2019 22:00:00 6,8 3,5 2,6 3,5 5,2 5,0 6 3 8 4 SSW 1026,7 25 0 0,0
20.02.2019 21:00:00 7,2 3,4 0,5 3,6 5,4 5,0 5 3 8 4 SSW 1026,4 28 0 0,0
20.02.2019 20:00:00 7,2 2,8 0,6 4,5 5,6 5,0 5 3 8 5 S 1026,2 28 0 0,0
20.02.2019 19:00:00 7,7 2,7 2,6 5,7 5,7 5,0 6 3 8 5 SW 1025,8 37 0 0,0
20.02.2019 18:00:00 8,6 2,7 5,0 7,6 5,6 5,0 6 4 14 8 SSW 1025,2 45 16 0,0
20.02.2019 17:00:00 10,1 2,8 9,3 9,6 5,3 4,9 9 5 23 12 WSW 1024,8 49 48 0,0
20.02.2019 16:00:00 11,3 3,4 12,1 11,1 4,9 4,9 11 6 27 14 SW 1024,7 48 60 0,0
20.02.2019 15:00:00 10,3 3,5 11,6 11,6 4,3 4,9 8 4 16 9 SW 1025,0 38 54 0,0
20.02.2019 14:00:00 9,4 3,1 12,2 11,8 3,7 4,9 7 4 11 6 S 1025,3 39 58 0,0
20.02.2019 13:00:00 7,7 3,2 10,5 10,1 3,2 4,9 5 3 8 4 SSW 1025,7 25 59 0,0
20.02.2019 12:00:00 4,2 1,1 7,6 7,4 2,8 4,9 2 1 5 3 NE 1026,5 11 60 0,0
20.02.2019 11:00:00 1,9 0,2 5,8 4,0 2,7 4,9 3 2 7 4 N 1026,4 5 60 0,0
20.02.2019 10:00:00 2,5 0,2 4,0 0,6 2,8 4,9 3 1 6 4 S 1025,9 9 60 0,0
20.02.2019 09:00:00 1,1 0,4 0,1 0,5 2,9 4,9 5 3 9 5 ESE 1025,6 0,5 22 0,0
20.02.2019 08:00:00 -0,1 -0,5 -1,5 0,5 3,0 4,9 6 3 7 4 ENE 1025,3 0,1 0 0,0
20.02.2019 07:00:00 0,5 -0,6 -1,7 0,6 3,1 4,9 0 0 7 4 N 1024,8 1,2 0 0,0
20.02.2019 06:00:00 2,9 2,0 -1,8 0,7 3,2 4,9 8 4 9 5 SW 1024,2 9 0 0,0
20.02.2019 05:00:00 2,7 1,9 -2,6 0,8 3,4 4,9 7 4 10 5 SW 1024,1 10 0 0,0
20.02.2019 04:00:00 2,5 1,5 -2,4 0,9 3,5 4,9 4 2 9 5 SW 1024,0 9 0 0,0
20.02.2019 03:00:00 3,3 2,0 -0,6 1,1 3,6 4,9 6 3 8 4 WSW 1024,2 15 0 0,0
20.02.2019 02:00:00 3,8 1,9 -0,2 1,1 3,8 4,9 6 4 8 4 WSW 1024,2 24 0 0,0
20.02.2019 01:00:00 3,9 1,7 -0,2 1,2 4,0 4,9 5 3 8 5 WSW 1024,1 34 0 0,0
20.02.2019 00:00:00 4,2 1,7 1,1 1,4 4,2 4,9 7 4 10 5 WSW 1024,0 35 0 0,0
19.02.2019 23:00:00 4,5 1,4 1,3 1,8 4,4 4,9 7 4 13 7 WSW 1023,8 43 0 0,0
19.02.2019 22:00:00 4,4 1,1 1,7 2,2 4,7 4,9 11 6 14 7 W 1023,8 52 0 0,0
19.02.2019 21:00:00 4,0 0,9 0,9 2,5 4,9 4,9 12 6 14 7 WSW 1023,8 50 0 0,0
19.02.2019 20:00:00 3,7 0,6 0,0 3,1 5,1 4,9 10 5 15 8 SW 1023,5 53 0 0,0
19.02.2019 19:00:00 4,7 0,8 1,5 4,2 5,3 4,9 10 5 19 11 WSW 1022,9 51 0 0,0
19.02.2019 18:00:00 6,7 1,8 5,0 5,8 5,3 4,9 15 8 24 13 WSW 1022,4 59 5 0,0
19.02.2019 17:00:00 7,5 2,3 6,6 7,3 5,2 4,8 14 7 28 15 SW 1022,4 59 8 0,0
19.02.2019 16:00:00 8,8 3,0 8,8 8,3 5,0 4,8 16 9 27 15 WSW 1022,2 55 9 0,0
19.02.2019 15:00:00 8,3 3,0 8,8 8,7 4,7 4,8 16 9 24 13 W 1022,1 52 11 0,0
19.02.2019 14:00:00 7,8 2,4 8,9 8,5 4,4 4,8 16 8 24 13 W 1022,4 59 0 0,0
19.02.2019 13:00:00 8,0 3,3 9,2 9,5 4,0 4,8 14 8 23 12 W 1022,7 63 22 0,0
19.02.2019 12:00:00 7,9 4,7 10,4 7,6 3,7 4,8 9 5 17 9 WSW 1022,8 35 14 0,0
19.02.2019 11:00:00 4,9 3,7 5,2 4,9 3,6 4,8 9 5 11 6 WSW 1022,8 16 0 0,1
19.02.2019 10:00:00 4,8 3,4 5,0 4,1 3,5 4,8 6 4 16 9 W 1022,2 15 0 0,3
19.02.2019 09:00:00 4,4 2,3 3,9 3,3 3,5 4,8 12 6 24 13 WSW 1021,7 20 0 0,3
19.02.2019 08:00:00 5,2 1,2 4,3 2,9 3,5 4,8 13 7 22 12 WSW 1020,7 42 0 0,0
19.02.2019 07:00:00 5,2 0,9 4,4 2,5 3,5 4,8 15 8 22 12 SW 1019,8 47 0 0,0
19.02.2019 06:00:00 5,0 0,6 3,9 2,0 3,6 4,8 14 8 25 14 SW 1019,7 47 0 0,0
19.02.2019 05:00:00 5,4 0,6 4,1 2,2 3,7 4,8 16 9 26 14 SW 1019,5 51 0 0,0
19.02.2019 04:00:00 5,6 0,3 3,6 1,9 3,8 4,8 18 10 23 13 SW 1019,2 48 0 0,0
19.02.2019 03:00:00 5,6 0,1 3,3 1,8 4,0 4,8 16 9 23 13 SW 1019,5 53 0 0,0
19.02.2019 02:00:00 5,5 0,0 2,6 1,9 4,1 4,8 17 9 27 15 SW 1019,6 45 0 0,0
19.02.2019 01:00:00 5,3 0,2 1,6 2,0 4,3 4,8 16 9 24 13 SSW 1019,6 53 0 0,0
19.02.2019 00:00:00 6,3 0,4 3,3 2,4 4,4 4,8 16 9 28 15 SSW 1019,3 53 0 0,0
18.02.2019 23:00:00 7,0 0,3 4,5 2,8 4,6 4,8 19 10 36 19 SW 1019,3 46 0 0,0
18.02.2019 22:00:00 7,0 0,3 3,7 2,9 4,8 4,8 17 9 25 13 SW 1019,2 65 0 0,0
18.02.2019 21:00:00 6,9 0,2 2,7 3,2 5,1 4,8 17 9 21 11 SSW 1019,2 61 0 0,0
18.02.2019 20:00:00 7,4 0,2 2,2 4,0 5,2 4,8 13 7 19 10 SSW 1019,1 53 0 0,0
18.02.2019 19:00:00 8,7 0,2 5,1 5,0 5,3 4,7 14 8 26 14 SSW 1018,9 64 0 0,0
18.02.2019 18:00:00 10,1 0,0 7,9 6,5 5,3 4,7 21 11 36 19 SSW 1018,4 70 28 0,0
18.02.2019 17:00:00 12,1 -1,6 10,2 8,2 5,1 4,7 22 12 35 19 SSW 1018,0 75 59 0,0
18.02.2019 16:00:00 13,3 -2,0 12,8 9,7 4,8 4,7 23 13 39 21 SSW 1018,1 75 60 0,0
18.02.2019 15:00:00 14,1 -1,5 15,1 10,7 4,3 4,7 21 12 41 22 S 1018,1 75 60 0,0
18.02.2019 14:00:00 13,7 -1,1 14,9 10,8 3,8 4,7 21 11 54 29 S 1018,6 67 60 0,0
18.02.2019 13:00:00 13,2 -0,8 15,0 10,2 3,3 4,7 27 15 42 23 SSW 1019,5 75 60 0,0
18.02.2019 12:00:00 10,6 1,3 12,7 8,0 2,9 4,7 13 7 24 13 S 1020,8 63 60 0,0
18.02.2019 11:00:00 7,4 0,3 9,6 4,6 2,8 4,7 9 5 15 8 SSE 1021,8 32 60 0,0
18.02.2019 10:00:00 6,1 -0,7 7,3 0,8 2,8 4,7 5 3 13 7 SSE 1022,3 28 60 0,0
18.02.2019 09:00:00 4,7 -0,8 2,3 0,6 2,9 4,7 9 5 16 8 SSE 1022,6 38 52 0,0
18.02.2019 08:00:00 3,4 -1,5 -0,2 0,6 3,0 4,7 11 6 15 8 SSE 1022,6 37 0 0,0
18.02.2019 07:00:00 3,9 -1,6 0,8 0,7 3,1 4,7 10 6 15 8 SSE 1022,5 44 0 0,0
18.02.2019 06:00:00 4,6 -1,6 0,9 0,8 3,3 4,7 13 7 16 8 S 1022,5 48 0 0,0
18.02.2019 05:00:00 4,8 -2,0 0,5 0,9 3,4 4,7 12 6 16 9 S 1022,5 52 0 0,0
18.02.2019 04:00:00 4,8 -2,3 1,7 0,9 3,6 4,7 11 6 14 8 SSE 1022,6 43 0 0,0
18.02.2019 03:00:00 5,8 -2,5 0,5 0,9 3,8 4,7 8 4 14 8 SSE 1022,8 57 0 0,0
18.02.2019 02:00:00 5,7 -2,3 1,1 0,9 4,0 4,7 6 4 13 7 ESE 1023,0 41 0 0,0
18.02.2019 01:00:00 7,5 -2,6 1,8 1,3 4,2 4,7 9 5 14 8 SSE 1022,7 55 0 0,0
18.02.2019 00:00:00 8,4 -2,5 3,4 1,6 4,5 4,7 13 7 14 8 S 1022,6 64 0 0,0
17.02.2019 23:00:00 9,3 -2,7 2,7 2,0 4,8 4,7 10 6 13 7 SSE 1022,5 64 0 0,0
17.02.2019 22:00:00 8,5 -2,8 -0,5 2,6 5,0 4,6 9 5 16 8 SSW 1022,9 60 0 0,0
17.02.2019 21:00:00 9,6 -2,6 2,0 3,4 5,3 4,6 13 7 21 12 SSW 1022,6 73 0 0,0
17.02.2019 20:00:00 10,1 -2,4 4,4 4,2 5,5 4,6 15 8 19 11 SSW 1022,5 59 0 0,0
17.02.2019 19:00:00 10,7 -2,1 5,5 5,3 5,6 4,6 16 9 19 10 SSW 1022,2 74 0 0,0
17.02.2019 18:00:00 12,9 -2,0 8,7 7,0 5,6 4,6 13 7 20 11 S 1021,6 69 41 0,0
17.02.2019 17:00:00 14,7 -1,9 12,2 9,3 5,3 4,6 13 7 21 11 S 1021,7 75 60 0,0
17.02.2019 16:00:00 15,6 -1,8 15,3 11,4 4,9 4,6 16 8 23 12 SSW 1021,9 69 60 0,0
17.02.2019 15:00:00 15,7 -1,8 16,4 12,1 4,4 4,6 14 8 21 12 SSW 1022,1 60 60 0,0
17.02.2019 14:00:00 15,5 -1,6 16,8 12,1 3,8 4,6 11 6 24 13 SSW 1022,6 54 60 0,0
17.02.2019 13:00:00 13,3 -0,4 14,8 10,3 3,2 4,6 12 7 18 10 S 1023,5 44 60 0,0
17.02.2019 12:00:00 10,7 -0,3 12,1 8,0 2,8 4,6 10 6 20 11 S 1024,5 45 60 0,0
17.02.2019 11:00:00 8,7 -1,1 10,2 4,9 2,7 4,6 11 6 18 10 S 1024,7 55 60 0,0
17.02.2019 10:00:00 6,5 -1,9 7,4 1,0 2,7 4,6 9 5 16 9 S 1025,2 32 60 0,0
17.02.2019 09:00:00 5,3 -2,0 2,8 0,7 2,8 4,6 11 6 23 12 SSE 1025,5 46 50 0,0
17.02.2019 08:00:00 4,1 -1,8 2,0 0,7 2,9 4,6 14 7 19 10 SSE 1025,6 32 0 0,0
17.02.2019 07:00:00 4,5 -1,4 1,5 0,7 3,0 4,6 9 5 18 10 ESE 1025,6 33 0 0,0
17.02.2019 06:00:00 4,5 -0,6 1,4 0,8 3,1 4,6 10 5 15 8 SE 1025,8 26 0 0,0
17.02.2019 05:00:00 4,3 0,2 0,0 0,8 3,3 4,6 6 3 9 5 E 1025,9 22 0 0,0
17.02.2019 04:00:00 4,9 0,1 0,0 0,8 3,5 4,6 5 3 10 6 ESE 1026,0 24 0 0,0
17.02.2019 03:00:00 5,8 0,2 1,1 0,6 3,7 4,6 8 4 10 5 SE 1026,1 27 0 0,0
17.02.2019 02:00:00 6,6 0,3 0,7 0,9 3,9 4,6 7 4 9 5 SE 1026,3 29 0 0,0
17.02.2019 01:00:00 6,4 1,7 1,6 1,4 4,1 4,6 6 4 11 6 E 1026,6 21 0 0,0
17.02.2019 00:00:00 7,3 1,8 2,4 1,7 4,4 4,5 8 4 10 5 E 1026,6 21 0 0,0
16.02.2019 23:00:00 8,0 2,2 2,1 2,2 4,6 4,5 5 3 8 4 NE 1026,9 19 0 0,0
16.02.2019 22:00:00 8,8 2,2 2,0 2,8 4,9 4,5 5 3 9 5 ENE 1026,9 24 0 0,0
16.02.2019 21:00:00 10,8 2,0 2,6 3,4 5,1 4,5 4 2 8 4 E 1026,6 25 0 0,0
16.02.2019 20:00:00 11,2 2,0 3,8 4,3 5,3 4,5 5 3 6 4 E 1026,7 23 0 0,0
16.02.2019 19:00:00 11,2 1,9 3,0 5,5 5,4 4,5 6 3 8 4 ESE 1026,8 25 0 0,0
16.02.2019 18:00:00 12,1 1,9 5,9 7,3 5,4 4,5 4 2 9 5 NNW 1026,8 24 36 0,0
16.02.2019 17:00:00 13,6 1,2 10,6 9,8 5,1 4,5 4 2 9 5 NNE 1026,6 26 60 0,0
16.02.2019 16:00:00 14,1 1,5 14,5 11,7 4,6 4,5 5 3 13 7 SSE 1026,7 31 60 0,0
16.02.2019 15:00:00 14,5 1,5 15,9 12,2 4,0 4,5 6 3 14 8 SW 1027,0 29 60 0,0
16.02.2019 14:00:00 13,6 1,6 15,3 12,1 3,4 4,5 10 5 14 8 SW 1027,8 31 60 0,0
16.02.2019 13:00:00 11,4 1,0 14,1 10,5 2,8 4,5 8 4 13 7 SSW 1028,5 34 60 0,0
16.02.2019 12:00:00 8,8 0,3 11,3 7,7 2,4 4,5 8 5 12 7 SSW 1029,1 36 60 0,0
16.02.2019 11:00:00 6,5 -0,4 9,6 3,8 2,3 4,5 7 4 13 7 S 1029,3 30 60 0,0
16.02.2019 10:00:00 5,1 -0,3 6,1 0,6 2,4 4,5 5 3 11 6 SE 1029,5 23 60 0,0
16.02.2019 09:00:00 3,7 0,1 1,0 0,5 2,5 4,5 8 4 13 7 SE 1029,8 22 48 0,0
16.02.2019 08:00:00 2,0 -0,6 -0,1 0,5 2,6 4,5 8 4 12 7 ESE 1029,8 22 0 0,0
16.02.2019 07:00:00 2,4 -0,8 0,0 0,6 2,6 4,5 9 5 11 6 E 1029,3 25 0 0,0
16.02.2019 06:00:00 3,3 -0,5 0,4 0,6 2,7 4,5 8 4 12 7 ESE 1029,2 31 0 0,0
16.02.2019 05:00:00 3,5 -0,6 1,2 0,6 2,9 4,5 9 5 13 7 E 1029,3 24 0 0,0
16.02.2019 04:00:00 4,6 -0,6 0,5 0,5 3,1 4,5 6 3 10 5 ESE 1029,5 39 0 0,0
16.02.2019 03:00:00 5,1 -0,4 0,3 0,3 3,2 4,5 6 3 12 7 E 1029,7 35 0 0,0
16.02.2019 02:00:00 5,4 -0,5 1,9 0,7 3,4 4,5 9 5 14 8 E 1029,7 39 0 0,0
16.02.2019 01:00:00 6,2 -0,4 2,5 0,9 3,7 4,5 9 5 15 8 E 1029,6 47 0 0,0
16.02.2019 00:00:00 6,3 -0,6 3,6 1,4 3,9 4,5 11 6 16 9 E 1029,7 45 0 0,0
15.02.2019 23:00:00 6,8 -0,4 3,7 1,7 4,1 4,5 12 6 16 9 E 1029,8 44 0 0,0
15.02.2019 22:00:00 6,3 0,4 2,0 2,1 4,4 4,5 11 6 16 8 NE 1030,0 42 0 0,0
15.02.2019 21:00:00 7,4 0,7 3,5 2,8 4,6 4,5 13 7 15 8 ENE 1029,8 44 0 0,0
15.02.2019 20:00:00 8,5 0,5 3,8 3,7 4,8 4,5 11 6 17 9 ENE 1030,0 47 0 0,0
15.02.2019 19:00:00 10,8 -0,6 6,5 4,9 4,9 4,5 11 6 19 10 ENE 1029,7 55 0 0,0
15.02.2019 18:00:00 12,3 -1,4 8,2 6,4 4,8 4,5 10 5 15 8 E 1029,4 58 37 0,0
15.02.2019 17:00:00 13,6 -2,0 10,7 8,8 4,5 4,4 8 5 16 9 E 1029,5 56 60 0,0
15.02.2019 16:00:00 14,4 -2,3 14,4 11,0 4,1 4,4 8 5 16 9 E 1029,8 75 60 0,0
15.02.2019 15:00:00 13,7 -2,7 14,9 11,6 3,5 4,4 10 6 19 10 E 1030,3 71 60 0,0

tt = Température de l'air
td = dewpoint
tt 5cm = Température de l'air 5cm
tt -5cm = Température de l'air -5cm
tt -20cm = Température de l'air -20cm
tt -100cm = Température de l'air -100cm
ff = Vitesse du vent
fx = gusts
dd = Direction du vent
ppp = reduced air pressure
vv = visibility
sd = Ensoleillement
rr = Quantités de précipitations

stations d'obs. à proximité